| time (UTC) | temp F | wind direction | speed MPH | gust MPH | rain 1hr in | rain 24hr in | rain mn in | humidity % | barometer mb |
| 20260504060202 | 46 | 237 | 8.0 | 9.0 | 0.00 | 0.00 | 0.00 | 66 | 1005.6 |
| 20260504050227 | 46 | 240 | 6.0 | 6.0 | 0.00 | 0.00 | 0.00 | 56 | 1006.0 |
| 20260504045724 | 46 | 240 | 6.0 | 6.0 | 0.00 | 0.00 | 0.00 | 56 | 1006.0 |
| 20260504044709 | 46 | 214 | 6.0 | 11.0 | 0.00 | 0.00 | 0.00 | 54 | 1006.0 |
| 20260504043204 | 46 | 227 | 9.0 | 10.0 | 0.00 | 0.00 | 0.00 | 51 | 1006.3 |
| 20260504041704 | 47 | 228 | 9.0 | 10.0 | 0.00 | 0.00 | 0.00 | 50 | 1006.3 |
| 20260504040228 | 47 | 231 | 10.0 | 11.0 | 0.00 | 0.00 | 0.00 | 48 | 1006.0 |
| 20260504034738 | 48 | 224 | 9.0 | 11.0 | 0.00 | 0.00 | 0.00 | 46 | 1006.0 |
| 20260504031702 | 48 | 225 | 8.0 | 8.0 | 0.00 | 0.00 | 0.00 | 46 | 1006.1 |
| 20260504030203 | 48 | 231 | 8.0 | 8.0 | 0.00 | 0.00 | 0.00 | 46 | 1006.2 |
| 20260504024708 | 48 | 228 | 8.0 | 8.0 | 0.00 | 0.00 | 0.00 | 47 | 1006.2 |
| 20260504023202 | 47 | 223 | 7.0 | 8.0 | 0.00 | 0.00 | 0.00 | 48 | 1006.5 |
| 20260504020202 | 48 | 234 | 7.0 | 9.0 | 0.00 | 0.00 | 0.00 | 48 | 1007.0 |
| 20260504014704 | 49 | 237 | 6.0 | 10.0 | 0.00 | 0.00 | 0.00 | 48 | 1007.0 |
| 20260504013202 | 49 | 233 | 8.0 | 8.0 | 0.00 | 0.00 | 0.00 | 48 | 1006.7 |
| 20260504011711 | 49 | 248 | 5.0 | 6.0 | 0.00 | 0.00 | 0.00 | 49 | 1006.7 |
| 20260504010228 | 50 | 235 | 7.0 | 8.0 | 0.00 | 0.00 | 0.00 | 46 | 1006.4 |
| 20260504003202 | 51 | 234 | 8.0 | 9.0 | 0.00 | 0.00 | 0.00 | 43 | 1006.3 |
| 20260504001702 | 51 | 235 | 7.0 | 9.0 | 0.00 | 0.00 | 0.00 | 42 | 1006.3 |
| 20260503235719 | 52 | 245 | 8.0 | 11.0 | 0.00 | 0.00 | 0.00 | 41 | 1006.5 |
| 20260503234713 | 53 | 243 | 8.0 | 9.0 | 0.00 | 0.00 | 0.00 | 40 | 1006.5 |
| 20260503233229 | 54 | 237 | 7.0 | 10.0 | 0.00 | 0.00 | 0.00 | 39 | 1006.3 |
| 20260503231214 | 54 | 239 | 10.0 | 11.0 | 0.00 | 0.00 | 0.00 | 38 | 1006.4 |
| 20260503225845 | 54 | 243 | 9.0 | 13.0 | 0.00 | 0.00 | 0.00 | 35 | 1006.1 |
| 20260503224702 | 54 | 244 | 10.0 | 12.0 | 0.00 | 0.00 | 0.00 | 35 | 1006.1 |
| 20260503221702 | 55 | 263 | 11.0 | 15.0 | 0.00 | 0.00 | 0.00 | 32 | 1006.1 |
| 20260503220202 | 54 | 260 | 10.0 | 16.0 | 0.00 | 0.00 | 0.00 | 32 | 1006.2 |
| 20260503214701 | 54 | 258 | 12.0 | 14.0 | 0.00 | 0.00 | 0.00 | 33 | 1006.2 |
| 20260503213202 | 54 | 255 | 10.0 | 15.0 | 0.00 | 0.00 | 0.00 | 34 | 1006.5 |
| 20260503211702 | 54 | 244 | 12.0 | 15.0 | 0.00 | 0.00 | 0.00 | 35 | 1006.5 |
| 20260503210203 | 54 | 266 | 13.0 | 16.0 | 0.00 | 0.00 | 0.00 | 34 | 1006.4 |
| 20260503203202 | 54 | 259 | 13.0 | 16.0 | 0.00 | 0.00 | 0.00 | 35 | 1006.6 |
| 20260503201702 | 54 | 281 | 9.0 | 16.0 | 0.00 | 0.00 | 0.00 | 37 | 1006.6 |
| 20260503200228 | 53 | 256 | 11.0 | 15.0 | 0.00 | 0.00 | 0.00 | 37 | 1006.7 |
| 20260503194728 | 53 | 300 | 14.0 | 16.0 | 0.00 | 0.00 | 0.00 | 35 | 1006.7 |
| 20260503193202 | 53 | 260 | 12.0 | 12.0 | 0.00 | 0.00 | 0.00 | 37 | 1007.3 |
| 20260503191702 | 53 | 258 | 14.0 | 18.0 | 0.00 | 0.00 | 0.00 | 37 | 1007.3 |
| 20260503190202 | 53 | 269 | 11.0 | 12.0 | 0.00 | 0.00 | 0.00 | 38 | 1007.5 |
| 20260503184702 | 52 | 276 | 12.0 | 15.0 | 0.00 | 0.00 | 0.00 | 38 | 1007.5 |
| 20260503183201 | 51 | 267 | 9.0 | 11.0 | 0.00 | 0.02 | 0.00 | 42 | 1007.6 |
| 20260503181701 | 50 | 252 | 10.0 | 12.0 | 0.00 | 0.10 | 0.00 | 43 | 1007.6 |
| 20260503180202 | 50 | 291 | 8.0 | 11.0 | 0.00 | 0.17 | 0.00 | 45 | 1008.0 |
| 20260503174702 | 50 | 260 | 14.0 | 14.0 | 0.00 | 0.17 | 0.00 | 45 | 1008.0 |
| 20260503173202 | 50 | 269 | 10.0 | 12.0 | 0.00 | 0.17 | 0.00 | 46 | 1008.1 |
| 20260503171701 | 51 | 260 | 11.0 | 14.0 | 0.00 | 0.17 | 0.00 | 44 | 1008.1 |
| 20260503170202 | 50 | 309 | 11.0 | 12.0 | 0.00 | 0.17 | 0.00 | 45 | 1008.8 |
| 20260503160201 | 48 | 287 | 10.0 | 10.0 | 0.00 | 0.17 | 0.00 | 47 | 1009.6 |
| 20260503150202 | 50 | 316 | 7.0 | 8.0 | 0.00 | 0.17 | 0.00 | 46 | 1010.2 |
| 20260503140202 | 47 | 335 | 8.0 | 8.0 | 0.00 | 0.17 | 0.00 | 59 | 1010.7 |
| 20260503130201 | 45 | 354 | 5.0 | 5.0 | 0.00 | 0.18 | 0.00 | 70 | 1010.9 |
| 20260503120201 | 43 | 331 | 6.0 | 6.0 | 0.00 | 0.21 | 0.00 | 73 | 1010.8 |
| 20260503110201 | 43 | 341 | 5.0 | 5.0 | 0.00 | 0.23 | 0.00 | 76 | 1010.8 |
| 20260503100202 | 39 | 308 | 5.0 | 5.0 | 0.00 | 0.26 | 0.00 | 91 | 1010.4 |
| 20260503080201 | 41 | 251 | 7.0 | 7.0 | 0.00 | 0.28 | 0.00 | 86 | 1010.6 |
| 20260503070229 | 41 | 257 | 5.0 | 5.0 | 0.00 | 0.28 | 0.00 | 86 | 1010.8 |